Miami Weather Center

Moon Phase Calendar



Online Cameras

 


      

Current Conditions in Miami Shores
6/12/2021 11:17:49 PM

80°F
Feels Like 80
Clear
Humidity
72%
Pressure
29.94"
Wind
4.6 mph (SW)
Dew Point
70°F
UV Index
0/10 (Low)
Visibility
6 mi

Hourly Forecast

Date & Time Sat, Jun 12
11:00 PM
Sun, Jun 13
12:00 AM
Sun, Jun 13
1:00 AM
Sun, Jun 13
2:00 AM
Sun, Jun 13
3:00 AM
Sun, Jun 13
4:00 AM
Sun, Jun 13
5:00 AM
Sun, Jun 13
6:00 AM
Sun, Jun 13
7:00 AM
Sun, Jun 13
8:00 AM
Sun, Jun 13
9:00 AM
Sun, Jun 13
10:00 AM
Sun, Jun 13
11:00 AM
Sun, Jun 13
12:00 PM
Sun, Jun 13
1:00 PM
Sun, Jun 13
2:00 PM
Sun, Jun 13
3:00 PM
Sun, Jun 13
4:00 PM
Sun, Jun 13
5:00 PM
Sun, Jun 13
6:00 PM
Sun, Jun 13
7:00 PM
Sun, Jun 13
8:00 PM
Sun, Jun 13
9:00 PM
Sun, Jun 13
10:00 PM
Sun, Jun 13
11:00 PM
Mon, Jun 14
12:00 AM
Mon, Jun 14
1:00 AM
Mon, Jun 14
2:00 AM
Mon, Jun 14
3:00 AM
Mon, Jun 14
4:00 AM
Mon, Jun 14
5:00 AM
Mon, Jun 14
6:00 AM
Mon, Jun 14
7:00 AM
Mon, Jun 14
8:00 AM
Mon, Jun 14
9:00 AM
Mon, Jun 14
10:00 AM
Mon, Jun 14
11:00 AM
Mon, Jun 14
12:00 PM
Mon, Jun 14
1:00 PM
Mon, Jun 14
2:00 PM
Mon, Jun 14
3:00 PM
Mon, Jun 14
4:00 PM
Mon, Jun 14
5:00 PM
Mon, Jun 14
6:00 PM
Mon, Jun 14
7:00 PM
Mon, Jun 14
8:00 PM
Mon, Jun 14
9:00 PM
Mon, Jun 14
10:00 PM
Condition
Rain

Clouds

Clouds

Clouds

Clouds

Rain

Clouds

Clear

Clouds

Clouds

Clear

Clouds

Clouds

Clouds

Clouds

Rain

Rain

Rain

Clouds

Clouds

Clouds

Clouds

Clear

Clouds

Clouds

Clouds

Rain

Rain

Rain

Clouds

Clouds

Clouds

Clouds

Rain

Rain

Rain

Rain

Rain

Rain

Rain

Rain

Rain

Rain

Clouds

Clouds

Clouds

Clouds

Clouds
Temperature 80°F80°F81°F81°F81°F81°F81°F81°F81°F82°F83°F85°F87°F89°F91°F92°F92°F92°F92°F92°F91°F89°F87°F86°F84°F84°F83°F83°F83°F83°F83°F82°F82°F82°F83°F84°F83°F77°F76°F77°F77°F77°F77°F78°F77°F78°F78°F78°F
Feels Like 80°F84°F85°F85°F86°F86°F86°F85°F85°F87°F88°F90°F92°F94°F96°F97°F97°F96°F97°F96°F95°F93°F92°F90°F89°F89°F88°F88°F88°F87°F87°F87°F87°F87°F88°F89°F88°F79°F77°F78°F78°F78°F78°F79°F78°F79°F79°F79°F
Cloudiness 1%20%38%53%13%14%11%9%16%14%2%18%16%13%12%15%62%64%54%43%38%33%6%11%33%29%29%38%99%100%100%100%100%100%99%95%97%98%98%98%100%100%100%100%100%100%100%95%
Visibility 6 mi6 mi6 mi6 mi6 mi6 mi6 mi6 mi6 mi6 mi6 mi6 mi6 mi6 mi6 mi6 mi6 mi6 mi6 mi6 mi6 mi6 mi6 mi6 mi6 mi6 mi6 mi6 mi6 mi6 mi6 mi6 mi6 mi6 mi6 mi6 mi2 mi4 mi6 mi6 mi6 mi6 mi6 mi6 mi6 mi6 mi6 mi6 mi
Precipitation 52%50%52%57%40%48%43%33%32%39%20%24%28%17%23%23%31%49%53%51%50%44%30%33%43%47%58%83%62%65%57%51%59%72%91%95%95%100%100%100%81%74%70%66%66%66%0%0%
Humidity 72%71%70%70%71%72%73%74%74%73%68%62%56%51%49%48%48%47%45%46%48%51%56%60%64%66%68%67%66%67%68%69%70%70%67%63%65%82%83%78%74%77%76%76%76%73%72%71%
Dew Point 70°F70°F70°F71°F71°F72°F72°F72°F72°F72°F71°F70°F69°F68°F68°F68°F68°F67°F67°F67°F68°F68°F69°F70°F71°F71°F71°F71°F71°F71°F71°F71°F71°F71°F71°F70°F70°F71°F70°F69°F68°F69°F69°F69°F69°F69°F68°F68°F
Pressure 29.94"29.94"29.94"29.91"29.88"29.88"29.88"29.88"29.91"29.94"29.94"29.94"29.94"29.91"29.91"29.88"29.85"29.85"29.85"29.85"29.85"29.88"29.88"29.91"29.94"29.91"29.94"29.91"29.91"29.91"29.91"29.91"29.94"29.94"29.97"29.97"29.97"30"30"30.03"30"30"29.97"29.97"29.97"29.97"29.97"30"
Wind Speed 11.3 mph10.4 mph10.1 mph9.3 mph8.6 mph8 mph7.8 mph8.1 mph7.9 mph8.2 mph9.1 mph9.5 mph9.1 mph8.6 mph9.1 mph10.8 mph12.8 mph13.4 mph13 mph16 mph17 mph17.2 mph15.8 mph15 mph14.2 mph12.8 mph11.4 mph9.8 mph8.9 mph9.6 mph9.1 mph7.9 mph8.3 mph7.5 mph6.3 mph6.2 mph11.7 mph20 mph15.3 mph13 mph14.6 mph14.7 mph16.7 mph17.9 mph15.8 mph10.9 mph8.5 mph8.2 mph
Wind
Direction
259°
W
258°
WSW
256°
WSW
252°
WSW
256°
WSW
250°
WSW
254°
WSW
257°
WSW
254°
WSW
250°
WSW
246°
WSW
244°
WSW
232°
SW
217°
SW
201°
SSW
191°
S
197°
SSW
212°
SSW
231°
SW
238°
WSW
244°
WSW
251°
WSW
253°
WSW
252°
WSW
251°
WSW
247°
WSW
246°
WSW
237°
WSW
239°
WSW
241°
WSW
253°
WSW
243°
WSW
246°
WSW
246°
WSW
225°
SW
210°
SSW
218°
SW
238°
WSW
242°
WSW
234°
SW
222°
SW
214°
SW
211°
SSW
214°
SW
217°
SW
227°
SW
229°
SW
233°
SW

Daily Forecast

Date High Low Precip. Humidity
Today
Jun 12

Rain
87 °F
80 °F
91%
59%
Sunday
Jun 13

Rain
92 °F
80 °F
57%
49%
Monday
Jun 14

Rain
84 °F
76 °F
100%
83%
Tuesday
Jun 15

Rain
90 °F
79 °F
60%
52%
Wednesday
Jun 16

Rain
89 °F
79 °F
98%
50%
Thursday
Jun 17

Clouds
85 °F
82 °F
32%
51%
Friday
Jun 18

Rain
86 °F
82 °F
39%
62%
Saturday
Jun 19

Rain
87 °F
82 °F
36%
63%
Sunday
Jun 20

Rain
88 °F
83 °F
55%
65%
Monday
Jun 21

Rain
88 °F
83 °F
63%
63%
Tuesday
Jun 22

Rain
89 °F
83 °F
38%
57%
Wednesday
Jun 23

Rain
90 °F
84 °F
75%
58%
Thursday
Jun 24

Rain
94 °F
83 °F
64%
47%
Friday
Jun 25

Rain
91 °F
83 °F
37%
53%
Saturday
Jun 26

Rain
90 °F
82 °F
68%
54%
Sunday
Jun 27

Rain
89 °F
83 °F
73%
58%

Temperature 8-14 Day Outlook



Precipitation 8-14 Day Outlook




Quick Links
Miami News
Miami Photos
Miami Videos




About Us
Contact Us
Site Map
Search Site
Advertise With Us
   
Miami.USCoast.info
THE MIAMI WEBSITE

Copyright 2021, Coastal Town
Privacy    |    Legal